Location: Kernascl�den
(48.0062°N, 3.3198°W)
Time: 22:07:51
(UTC+00:00)

ISS - Pass Details

Date: 21 January 2021
Orbit: 417 x 422 km, 51.6° (Epoch: 04 March)

Event Time Altitude Azimuth Distance (km) Brightness Sun altitude
Rises 20:01:26 0° 262° (W) 2,372 1.2 -30.6°
Reaches altitude 10° 20:03:33 10° 267° (W) 1,509 -0.1 -30.9°
Enters shadow 20:04:02 13° 269° (W) 1,320 -0.4 -31.0°
